Regional Weather Roundup
Issued by NWS

Home | Current Version | Previous Version | Graphics & Text | Print | Product List | Glossary On
Versions: 1 2 3 4 5 6 7 8 9 10 11 12 13 14 15 16 17 18 19 20 21 22 23 24 25 26 27
000
ASUS45 KTFX 260710
RWRMT
MONTANA REGIONAL WEATHER ROUNDUP
NATIONAL WEATHER SERVICE GREAT FALLS MT
100 AM MDT THU APR 26 2018

NOTE: "FAIR" INDICATES FEW OR NO CLOUDS BELOW 12000 FEET WITH NO
SIGNIFICANT WEATHER AND/OR OBSTRUCTIONS TO VISIBILITY.

MTZ001>007-043-260800-
WEST OF THE DIVIDE

CITY           SKY/WX    TMP DP  RH WIND       PRES   REMARKS
KALISPELL      FAIR      37  31  78 W6        30.16R
MISSOULA       FAIR      45  29  53 CALM      30.18R
BUTTE          FAIR      37  28  70 CALM      30.28R
MULLAN PASS    FAIR      48  21  34 SW3       30.23R
ANACONDA         N/A     39  28  65 SW5       30.27R
DEER LODGE       N/A     39  30  70 CALM      30.28S
HAMILTON         N/A     46  28  49 MISG      30.19S
$$

MTZ008-052>055-260800-
SOUTHWEST MONTANA

CITY           SKY/WX    TMP DP  RH WIND       PRES   REMARKS
BOZEMAN        FAIR      35  30  82 S7        30.28R WCI  29
DILLON         FAIR      38  31  76 NE7       30.25R
ENNIS          PTCLDY    39  32  75 E15       30.30R WCI  31
W YELLOWSTONE  FAIR      34  27  75 CALM      30.27R
$$

MTZ009-010-012-014-046-048-049-054-260800-
EAST SLOPES AND CENTRAL MONTANA

CITY           SKY/WX    TMP DP  RH WIND       PRES   REMARKS
CUT BANK       FAIR      37  28  70 SE7       30.20R WCI  32
GREAT FALLS    FAIR      35  29  78 S9        30.23S WCI  28
MALMSTROM AFB  FAIR      37  30  75 S3        30.23S
HELENA         FAIR      40  33  76 SE3       30.25S
AUGUSTA        FAIR      39  31  74 CALM      30.22S
BOWMANS CRNR   FAIR      36  30  78 S7        30.21S WCI  31
CHOTEAU          N/A     39  30  70 SW5       30.23S
FAIRFIELD      FAIR      38  30  72 S7        30.21S
POWER          FAIR      36  29  74 S5        30.22R
RAYNESFORD     FAIR      41  30  65 NE5       30.24R
ULM            FAIR      36  30  80 CALM      30.24R
WHITE SULPHUR    N/A     28  27  93 CALM      30.26S
$$

MTZ011-013-016-021-045-047-050-051-260800-
NORTH CENTRAL MONTANA

CITY           SKY/WX    TMP DP  RH WIND       PRES   REMARKS
HAVRE          FAIR      35  29  78 SW7       30.19R WCI  29
LEWISTOWN      FAIR      33  30  88 SE5       30.24R
N BAR RANCH    FAIR      36  30  80 NW8       30.26S WCI  29
CHINOOK          N/A     39  34  81 CALM      30.20R
GEYSER         FAIR      36  29  75 SW12      30.23S WCI  28
GRASS RANGE    FAIR      39  33  77 W14       30.20R WCI  31
STANFORD       FAIR      38  30  72 W13       30.24R WCI  30
$$

MTZ017>020-022>027-061-062-260800-
NORTHEAST MONTANA

CITY           SKY/WX    TMP DP  RH WIND       PRES   REMARKS
GLASGOW        FAIR      41  29  62 NW9       30.13R
GLENDIVE       FAIR      45  32  60 N9        30.12R
JORDAN           N/A     39  32  76 W8        30.16R
MALTA          PTCLDY    43  30  61 VRB6      30.15R
SIDNEY         FAIR      42  30  62 NW13      30.10R
WOLF POINT     FAIR      42  31  64 VRB5      30.12R
PLENTYWOOD       N/A     41  28  60 CALM      30.10R
POPLAR           N/A     43  30  61 N6        30.12R
$$

MTZ028>42-056>058-260800-
SOUTHCENTRAL AND SOUTHEAST MONTANA

CITY           SKY/WX    TMP DP  RH WIND       PRES   REMARKS
BAKER          FAIR      41  33  73 N7        30.11R
BILLINGS       FAIR      42  34  73 SW10      30.25R
LIVINGSTON     FAIR      35  31  85 W7        30.27S WCI  29
MILES CITY     FAIR      45  35  68 NW13      30.15R
BIG TIMBER     CLEAR     37  32  81 SW6       30.29S
FORSYTH          N/A     46  37  71 W3        30.19R
HARLOWTON      FAIR      34  29  81 W10       30.26R WCI  26
LAUREL           N/A     41  30  65 CALM      30.27R
$$

REGIONAL REPORTS...DAKOTAS

CITY           SKY/WX    TMP DP  RH WIND       PRES   REMARKS
WILLISTON      FAIR      43  30  60 NE5       30.08R
MINOT          FAIR      43  32  65 W12       30.00R
DICKINSON      FAIR      44  32  62 N10       30.03R
BEACH          MOCLDY    41  30  65 N10       30.12R
CROSBY         FAIR      36  30  80 NW12      30.07R WCI  27
TIOGA          FAIR      37  30  75 NW10      30.07R WCI  30
WATFORD CITY   FAIR      43  30  61 N6        30.07R
BISMARCK       FAIR      50  32  50 N17G26    29.96R
GRAND FORKS    FAIR      45  33  63 N18       29.83R
FARGO          FAIR      46  37  71 SW9       29.79R
BUFFALO SD       N/A     46  30  53 NW16      30.00R
RAPID CITY     FAIR      53  31  42 NW24G32   30.00R
$$

REGIONAL REPORTS...WYOMING/IDAHO/WASHINGTON

CITY           SKY/WX    TMP DP  RH WIND       PRES   REMARKS
GILLETTE       CLOUDY    48  31  51 NW20      30.14R
SHERIDAN       CLOUDY    46  36  68 NW16      30.23R
BUFFALO WY     MOCLDY    45  32  60 NW25G33   30.21R
CODY           FAIR      41  34  76 NW5       30.28R
YELLOWSTONE LA   N/A     27  24  89 CALM      30.32R
IDAHO FALLS    FAIR      43  33  68 N8        30.19R
SALMON         FAIR      41  28  60 E5        30.21R
BOISE          FAIR      53  34  48 SE5       30.11R
SPOKANE        FAIR      51  36  56 W6        30.12S
$$

REGIONAL REPORTS...ALBERTA

CITY           SKY/WX    TMP DP  RH WIND       PRES   REMARKS
CALGARY        PTCLDY    43  28  56 S5        30.13S
EDMONTON       CLEAR     45  21  39 SW9       30.02S
FORT MCMURRAY  CLEAR     43  25  49 S7        29.86F
HIGH LEVEL     CLEAR     50  28  43 NW3       29.90R
LETHBRIDGE     CLEAR     36  30  80 S13G18    30.15F WCI  27
LLOYDMINSTER   CLEAR     41  27  56 SW12      30.03F
MEDICINE HAT   CLEAR     36  27  69 SW5       30.15S
MILK RIVER       N/A     34  30  86 SW3         N/A
ONEFOUR          N/A     39  28  65 NW7         N/A
PEACE RIVER    CLEAR     46  32  57 W10       29.96R
PINCHER CREEK  CLEAR     36  30  80 W9        30.16R WCI  29
WATERTON GATE    N/A     41  28  60 SW9         N/A
$$

REGIONAL REPORTS...SASKATCHEWAN

CITY           SKY/WX    TMP DP  RH WIND       PRES   REMARKS
CORONACH         N/A     32  28  86 NW3         N/A
CYPRESS HILLS    N/A     39  19  45 NW2         N/A
ESTEVAN        CLEAR     32  27  80 NW9       30.05R WCI  24
MOOSE JAW        N/A     30  23  74 W7          N/A  WCI  23
PRINCE ALBERT  PTCLDY    32  25  74 W2        30.05F
REGINA         CLEAR     30  23  74 W7        30.09R WCI  23
ROCKGLEN         N/A     41  27  56 NW3         N/A
SASKATOON      CLEAR     34  27  75 SW9       30.08F WCI  26
SWIFT CURRENT  CLEAR     36  27  69 SW9       30.12R WCI  29
VAL MARIE        N/A     34  25  69 CALM        N/A
$$




USA.gov is the U.S. government's official web portal to all federal, state and local government web resources and services.